TV
NORAD ID: 32018
Int'l Code: 2007-036A
Perigee: 35,792.9 km
Apogee: 35,795.2 km
Inclination: 0.0 °
Period: 1,436.1 minutes
Semi major axis: 42165 km
Launch date: August 14, 2007
Source: United States (US)
Comments: Spaceway 3 is a 13,400-pound satellite that will propel itself into a circular 22,300-mile-high orbit above the equator at 95 degrees west longitude. The craft will be operated by Maryland-based Hughes Network Systems for more than 12 years, beaming Internet and multimedia services to businesses, government users and private consumers across North America. The spacecraft was built by Boeing Satellite Systems and is based on the Boeing 702 design.
Two Line Element Set (TLE):
1 32018U 07036A 13145.32136132 -.00000156 00000-0 10000-3 0 623
2 32018 000.0240 134.8721 0000270 038.0014 090.9211 01.00270802 21288
Source: AFSPC
NASA's NSSDC Master Catalog entry for SPACEWAY 3